Regional Weather Roundup
Issued by NWS Burlington, VT

Home | Current Version | Previous Version | Text Only | Print | Product List | Glossary On
Versions: 1 2 3 4 5 6 7 8 9 10 11 12 13 14 15 16 17 18 19 20 21 22 23 24 25 26 27 28 29 30 31 32 33 34 35 36 37 38 39 40 41 42 43 44 45 46 47 48 49 50
000
ASUS41 KBTV 061030
RWRBTV
VERMONT REGIONAL WEATHER ROUNDUP
NATIONAL WEATHER SERVICE BURLINGTON VT
600 AM EDT WED MAY 06 2015

NOTE: "FAIR" INDICATES FEW OR NO CLOUDS BELOW 12,000 FEET WITH NO
SIGNIFICANT WEATHER AND/OR OBSTRUCTIONS TO VISIBILITY.

* THESE REPORTS ARE NOT UNDER NWS QUALITY CONTROL AND/OR DO NOT
  REPORT WEATHER SUCH AS PRECIPITATION AND FOG.

VTZ001>019-061100-
_____VERMONT_____


CITY           SKY/WX    TMP DP  RH WIND       PRES   REMARKS
BURLINGTON     SUNNY     42  35  76 CALM      30.30R
MONTPELIER     SUNNY     38  32  79 CALM      30.33R
MORRISVILLE    SUNNY     36  32  85 S5        30.32R
ST. JOHNSBURY*   N/A     37  33  85 MISG      30.29R
LYNDONVILLE*     N/A     39  31  72 CALM      30.30S
MIDDLEBURY*      N/A     42  35  76 CALM      30.30R
RUTLAND*       MOSUNNY   41  30  65 SE10      30.30S
SPRINGFIELD    MOSUNNY   40  37  89 CALM      30.31R
HIGHGATE*        N/A     38  36  89 CALM      30.29R
NEWPORT*         N/A     36  32  86 CALM      30.29S
BENNINGTON     CLOUDY    47  40  76 CALM      30.28R
GALLUP MILLS*    N/A     32 N/A N/A MISG        N/A
MT. MANSFIELD*   N/A     43 N/A N/A CALM        N/A

_____LAKE CHAMPLAIN_____


CITY           SKY/WX    TMP DP  RH WIND       PRES   REMARKS
BURTON ISLAND*   N/A     48  43  81 S5          N/A
COLCHESTER RF*   N/A     48  39  71 S6          N/A
DIAMOND ISL*     N/A     46  43  87 E1          N/A

$$

NYZ007-026>031-035-052-083-061100-
_____NORTHERN NEW YORK_____


CITY           SKY/WX    TMP DP  RH WIND       PRES   REMARKS
PLATTSBURGH    SUNNY     41  36  82 CALM      30.29R
SARANAC LAKE   SUNNY     27  26  96 CALM      30.29R
MASSENA        SUNNY     38  36  92 CALM      30.30S FOG
OGDENSBURG*    SUNNY     39  39 100 CALM      30.29S FOG
POTSDAM*       SUNNY     37  37 100 S3        30.30R
STARK FALLS*     N/A     43 N/A N/A SE8         N/A
WATERTOWN      SUNNY     35  34  96 E5        30.29R
FT DRUM        SUNNY     45  42  91 SE5       30.28R
ALBANY         CLOUDY    56  38  50 CALM      30.28R
GLENS FALLS    MOSUNNY   44  39  82 CALM      30.28R

$$
NHZ002-005-011-061100-
_____NEW HAMPSHIRE_____


CITY           SKY/WX    TMP DP  RH WIND       PRES   REMARKS
LEBANON        SUNNY     35  31  85 CALM      30.30R
KEENE          PTSUNNY   43  37  81 CALM      30.31R
MT WASHINGTON  SUNNY     30  23  74 NW44        N/A  WCI  13
PLYMOUTH         N/A     36  36 100 CALM      30.30R
WHITEFIELD     SUNNY     31  28  89 CALM      30.29R

$$

_____REGIONAL QUEBEC LOCATIONS_____


CITY           SKY/WX    TMP DP  RH WIND       PRES   REMARKS
MONTREAL       MOSUNNY   48  43  81 VRB2      30.27S
QUEBEC CITY    MOSUNNY   39  36  87 W5        30.23S
SHERBROOKE     SUNNY     32 N/A N/A E2        30.27S

_____REGIONAL ONTARIO LOCATIONS_____


CITY           SKY/WX    TMP DP  RH WIND       PRES   REMARKS
OTTAWA         SUNNY     43  41  93 W3        30.28S

______KEY______
VSB  - VISIBILITY IN MILES
WCI  - WIND CHILL INDEX
HX   - HEAT INDEX
$$
NNNN


USA.gov is the U.S. government's official web portal to all federal, state and local government web resources and services.